Location: Zagreb
(45.8000°N, 16.0000°E)
Time: 00:06:09
(UTC+01:00)

Transit 2A Rocket - Pass Details

Date: 04 October 2020
Orbit: 586 x 916 km, 66.7° (Epoch: 28 October)

Event Time Altitude Azimuth Distance (km) Brightness Sun altitude
Rises 17:51:46 0° 247° (WSW) 3,538 10.6 5.7°
Reaches altitude 10° 17:54:36 10° 257° (WSW) 2,607 11.0 5.2°
Maximum altitude 17:59:56 30° 318° (NW) 1,565 7.1 4.3°
Drops below altitude 10° 18:05:11 10° 19° (NNE) 2,561 7.4 3.4°
Sets 18:07:58 0° 30° (NNE) 3,466 8.0 3.0°
